Bratislava, Slovakia

3:01 PM CEST on June 28, 2017 (GMT +0200)
M.R. Stefanik

Weather History for LZIB - April, 2013

Change the Weather History Date:

Saturday, April 13, 2013

  Actual Average Record
Temperature  
Mean Temperature 52 °F -  
Max Temperature 63 °F 63 °F 75 °F (2007)
Min Temperature 41 °F 44 °F 30 °F (1997)
Degree Days  
Heating Degree Days 13    
Growing Degree Days 2 (Base 50)    
Moisture  
Dew Point 39 °F    
Average Humidity 59    
Maximum Humidity 100    
Minimum Humidity 22    
Precipitation  
Precipitation 0.02 in - - ()
Sea Level Pressure  
Sea Level Pressure 30.05 in    
Wind  
Wind Speed 7 mph ()    
Max Wind Speed 20 mph    
Max Gust Speed 31 mph    
Visibility 12.4 miles    
Events Rain    
Averages and records for this station are not official NWS values.
T = Trace of Precipitation, MM = Missing Value Source: Averaged Metar Reports

Daily Weather History Graph

Daily Weather History Graph

Search for Another Location

Airport or City:

Trip Planner

Search our weather history database for the weather conditions in past years. The results will help you decide how hot, cold, wet, or windy it might be!

Date:

Astronomy

Apr. 13, 2013 Rise Set
Actual Time 6:05 AM CEST 7:38 PM CEST
Civil Twilight 5:32 AM CEST 8:11 PM CEST
Nautical Twilight 4:53 AM CEST 8:51 PM CEST
Astronomical Twilight 4:10 AM CEST 9:34 PM CEST
Moon 7:32 AM CEST (4/13) 11:00 PM CEST (4/13)
Length of Visible Light 14h 38m
Length of Day
13h 33m
Waxing Crescent, 9% of the Moon is Illuminated
Apr 13
Waxing Crescent
Apr 18
First Quarter
Apr 25
Full
May 2
Last Quarter
May 10
New

Hourly Weather History & Observations

Time (CEST) Temp. Windchill Dew Point Humidity Pressure Visibility Wind Dir Wind Speed Gust Speed Precip Events Conditions
12:00 AM 49 °F - 42 °F 71% 29.89 in 9 mi 2.2 mph - -  
12:00 AM 48.2 °F - 42.8 °F 82% 29.86 in - Variable 2.3 mph - N/A   Clear
12:30 AM 48.2 °F - 42.8 °F 82% 29.86 in - Variable 1.2 mph - N/A   Clear
1:00 AM 45 °F - 42 °F 86% 29.91 in 9 mi SW 4.5 mph - -   Clear
1:00 AM 44.6 °F 42.2 °F 42.8 °F 93% 29.89 in - WSW 4.6 mph - N/A   Clear
1:30 AM 44.6 °F 43.1 °F 41.0 °F 87% 29.89 in - SW 3.5 mph - N/A   Clear
2:00 AM 45 °F - 42 °F 85% 29.92 in 9 mi South 4.5 mph - -   Partly Cloudy
2:00 AM 44.6 °F 43.1 °F 42.8 °F 93% 29.89 in - SSW 3.5 mph - N/A   Clear
2:30 AM 42.8 °F 38.6 °F 41.0 °F 93% 29.89 in - SW 6.9 mph - N/A   Clear
3:00 AM 42 °F - 41 °F 95% 29.94 in 9 mi SSW 6.7 mph - -   Clear
3:00 AM 42.8 °F 38.6 °F 41.0 °F 93% 29.92 in - SW 6.9 mph - N/A   Clear
3:30 AM 44.6 °F 43.1 °F 42.8 °F 93% 29.92 in - SW 3.5 mph - N/A   Clear
4:00 AM 44 °F - 43 °F 94% 29.96 in 9 mi WSW 4.5 mph - -   Clear
4:00 AM 44.6 °F 42.2 °F 42.8 °F 93% 29.92 in - WSW 4.6 mph - N/A   Clear
4:30 AM 42.8 °F 40.1 °F 42.8 °F 100% 29.95 in - SW 4.6 mph - N/A   Clear
5:00 AM 42 °F - 41 °F 93% 29.96 in 9 mi SW 6.7 mph - -   Clear
5:00 AM 42.8 °F 38.6 °F 41.0 °F 93% 29.95 in - SW 6.9 mph - N/A   Clear
5:30 AM 44.6 °F 43.1 °F 41.0 °F 87% 29.95 in - West 3.5 mph - N/A   Clear
6:00 AM 46 °F - 41 °F 78% 29.97 in 12 mi WSW 4.5 mph - -   Partly Cloudy
6:00 AM 44.6 °F 42.2 °F 41.0 °F 87% 29.95 in - WSW 4.6 mph - N/A   Clear
6:30 AM 50.0 °F - 42.8 °F 76% 29.95 in - WNW 9.2 mph - N/A   Clear
7:00 AM 50 °F - 42 °F 65% 29.99 in 16 mi WNW 11.2 mph - -   Scattered Clouds
7:00 AM 50.0 °F - 41.0 °F 71% 29.98 in - WNW 11.5 mph - N/A   Clear
7:30 AM 50.0 °F - 41.0 °F 71% 29.98 in - WNW 10.4 mph - N/A   Clear
8:00 AM 51 °F - 42 °F 61% 30.02 in 16 mi West 11.2 mph - -   Scattered Clouds
8:00 AM 51.8 °F - 41.0 °F 67% 30.01 in - WNW 10.4 mph - N/A   Clear
8:30 AM 51.8 °F - 41.0 °F 67% 30.01 in 6.2 mi WNW 10.4 mph - N/A   Mostly Cloudy
9:00 AM 52 °F - 42 °F 58% 30.05 in 16 mi WNW 11.2 mph - -   Scattered Clouds
9:00 AM 51.8 °F - 41.0 °F 67% 30.04 in - WNW 10.4 mph - N/A   Clear
9:30 AM 53.6 °F - 41.0 °F 62% 30.04 in - WNW 11.5 mph - N/A   Clear
10:00 AM 54 °F - 41 °F 52% 30.06 in 19 mi WNW 8.9 mph - -   Scattered Clouds
10:00 AM 55.4 °F - 42.8 °F 63% 30.04 in 6.2 mi WNW 8.1 mph - N/A   Scattered Clouds
10:30 AM 55.4 °F - 41.0 °F 58% 30.06 in 6.2 mi WNW 11.5 mph - N/A   Scattered Clouds
11:00 AM 58 °F - 40 °F 41% 30.08 in 19 mi WNW 11.2 mph - -   Scattered Clouds
11:00 AM 59.0 °F - 42.8 °F 55% 30.06 in 6.2 mi WNW 10.4 mph - N/A   Partly Cloudy
11:30 AM 59.0 °F - 41.0 °F 51% 30.06 in 6.2 mi NNW 12.7 mph - N/A   Partly Cloudy
12:00 PM 60 °F - 39 °F 34% 30.09 in 22 mi NW 13.4 mph - -   Partly Cloudy
12:00 PM 60.8 °F - 39.2 °F 45% 30.06 in 6.2 mi NW 13.8 mph - N/A   Scattered Clouds
12:30 PM 60.8 °F - 39.2 °F 45% 30.09 in 6.2 mi WNW 13.8 mph - N/A   Scattered Clouds
1:00 PM 62 °F - 39 °F 31% 30.10 in 19 mi West 17.9 mph - -   Mostly Cloudy
1:00 PM 60.8 °F - 37.4 °F 42% 30.09 in - WNW 17.3 mph - N/A   Clear
1:30 PM 64.4 °F - 41.0 °F 42% 30.09 in - West 12.7 mph - N/A   Clear
2:00 PM 58 °F - 44 °F 48% 30.10 in 19 mi NW 13.4 mph - - Rain Light Rain Showers
2:00 PM 59.0 °F - 42.8 °F 55% 30.09 in 6.2 mi NW 12.7 mph - N/A Rain Light Rain Showers
2:30 PM 59.0 °F - 44.6 °F 59% 30.09 in 6.2 mi WNW 5.8 mph - N/A Rain Light Rain Showers
3:00 PM 61 °F - 40 °F 34% 30.11 in 19 mi WNW 17.9 mph - - Rain Light Rain Showers
3:00 PM 60.8 °F - 39.2 °F 45% 30.09 in 6.2 mi WNW 18.4 mph 31.1 mph N/A   Mostly Cloudy
3:30 PM 60.8 °F - 35.6 °F 39% 30.09 in - NW 19.6 mph - N/A   Clear
4:00 PM 62 °F - 36 °F 26% 30.11 in 19 mi NW 17.9 mph - -   Mostly Cloudy
4:00 PM 62.6 °F - 35.6 °F 37% 30.09 in - NW 16.1 mph 28.8 mph N/A   Clear
4:30 PM 60.8 °F - 37.4 °F 42% 30.09 in - WNW 18.4 mph - N/A   Clear
5:00 PM 62 °F - 34 °F 24% 30.12 in 19 mi NW 17.9 mph - -   Partly Cloudy
5:00 PM 62.6 °F - 35.6 °F 37% 30.12 in - NW 18.4 mph - N/A   Clear
5:30 PM 60.8 °F - 33.8 °F 36% 30.12 in - NW 18.4 mph - N/A   Clear
6:00 PM 61 °F - 34 °F 25% 30.14 in 19 mi NW 15.7 mph - -   Partly Cloudy
6:00 PM 60.8 °F - 33.8 °F 36% 30.12 in - NW 16.1 mph - N/A   Clear
6:30 PM 62.6 °F - 33.8 °F 34% 30.12 in - NW 13.8 mph - N/A   Clear
7:00 PM 61 °F - 32 °F 22% 30.15 in 31 mi NNW 13.4 mph - -   Scattered Clouds
7:00 PM 60.8 °F - 32.0 °F 34% 30.12 in - NNW 13.8 mph - N/A   Clear
7:30 PM 59.0 °F - 32.0 °F 36% 30.15 in - NNW 12.7 mph - N/A   Clear
8:00 PM 58 °F - 33 °F 27% 30.18 in 25 mi NW 6.7 mph - -   Partly Cloudy
8:00 PM 59.0 °F - 32.0 °F 36% 30.15 in - NW 8.1 mph - N/A   Clear
8:30 PM 55.4 °F - 33.8 °F 44% 30.18 in - NNW 4.6 mph - N/A   Clear
9:00 PM 54 °F - 35 °F 36% 30.21 in 19 mi WNW 2.2 mph - -   Scattered Clouds
9:00 PM 55.4 °F - 33.8 °F 44% 30.18 in - WNW 3.5 mph - N/A   Clear
9:30 PM 53.6 °F - 35.6 °F 51% 30.21 in - NNW 4.6 mph - N/A   Clear
10:00 PM 51 °F - 36 °F 46% 30.23 in 19 mi NW 4.5 mph - -   Scattered Clouds
10:00 PM 51.8 °F - 37.4 °F 58% 30.21 in - NW 5.8 mph - N/A   Clear
10:30 PM 50.0 °F - 35.6 °F 58% 30.21 in - NW 4.6 mph - N/A   Clear
11:00 PM 49 °F - 37 °F 52% 30.25 in 19 mi NW 4.5 mph - -   Scattered Clouds
11:00 PM 50.0 °F - 35.6 °F 58% 30.21 in - NW 3.5 mph - N/A   Clear
11:30 PM 50.0 °F - 37.4 °F 62% 30.24 in - WNW 8.1 mph - N/A   Clear